Waarnemingen

Advertentie
Mijn weer
Perpignan, Frankrijk (7747): temperatuur & dauwpunt: 15.01.2017 01:00:00 - 21.01.2017 01:00:00 (CET)Perpignan, Frankrijk (7747): temperatuur 5cm: 15.01.2017 01:00:00 - 21.01.2017 01:00:00 (CET)Perpignan, Frankrijk (7747): temperatuur -20cm & temperatuur -100cm: 15.01.2017 01:00:00 - 21.01.2017 01:00:00 (CET)Perpignan, Frankrijk (7747): windsnelheid & windstoten: 15.01.2017 01:00:00 - 21.01.2017 01:00:00 (CET)Perpignan, Frankrijk (7747): windrichting: 15.01.2017 01:00:00 - 21.01.2017 01:00:00 (CET)Perpignan, Frankrijk (7747): luchtdruk: 15.01.2017 01:00:00 - 21.01.2017 01:00:00 (CET)Perpignan, Frankrijk (7747): zicht: 15.01.2017 01:00:00 - 21.01.2017 01:00:00 (CET)Perpignan, Frankrijk (7747): Zonneschijnduur: 15.01.2017 01:00:00 - 21.01.2017 01:00:00 (CET)Perpignan, Frankrijk (7747): neerslag: 15.01.2017 01:00:00 - 21.01.2017 01:00:00 (CET)
Datum & Tijd tt [°C] td [°C] tt 5cm [°C] tt -20cm [°C] tt -100cm [°C] ff [km/u] ff [kn] fx [km/u] fx [kn] dd ppp [hPa] vv [km] sd [min] rr [mm]
21.01.2017 01:00:00 - - - - - - - - - - - - - -
21.01.2017 00:00:00 7,0 6,3 6,5 7,2 10,1 6 3 12 6 WNW 1025,4 3,7 0 1,4
20.01.2017 23:00:00 7,5 6,1 6,5 7,2 10,1 10 5 22 12 O 1025,6 5 0 1,4
20.01.2017 22:00:00 6,8 6,1 6,4 7,2 10,1 7 4 15 8 WZW 1025,5 2,9 0 2,8
20.01.2017 21:00:00 6,7 5,8 6,3 7,1 10,1 10 5 17 9 W 1025,3 9 0 0,0
20.01.2017 20:00:00 7,0 6,1 6,7 7,1 10,1 8 4 11 6 ZW 1025,0 11 0 0,0
20.01.2017 19:00:00 7,2 6,5 6,7 7,0 10,1 4 2 15 8 W 1024,5 11 0 0,0
20.01.2017 18:00:00 7,1 6,4 6,8 6,9 10,1 10 5 14 8 NW 1024,4 9 0 2,8
20.01.2017 17:00:00 7,4 6,7 7,2 6,7 10,1 6 4 13 7 W 1024,5 2,6 0 3,3
20.01.2017 16:00:00 7,8 6,7 8,1 6,5 10,1 6 3 13 7 NW 1024,8 4,3 16 0,6
20.01.2017 15:00:00 7,5 6,8 7,3 6,4 10,1 6 3 11 6 NW 1024,9 11 7 0,8
20.01.2017 14:00:00 6,4 5,7 6,0 6,3 10,1 10 5 16 8 NW 1025,2 10 0 1,2
20.01.2017 13:00:00 5,7 4,8 5,1 6,2 10,2 11 6 19 10 WNW 1026,3 4,2 0 1,6
20.01.2017 12:00:00 5,1 4,4 4,7 6,0 10,1 15 8 24 13 NNW 1026,6 4,5 0 3,4
20.01.2017 11:00:00 4,7 3,7 4,2 6,1 10,2 8 4 13 7 WZW 1027,3 2,8 0 3,2
20.01.2017 10:00:00 4,6 2,6 3,8 6,0 10,2 6 3 11 6 WNW 1026,7 9 0 0,0
20.01.2017 09:00:00 4,1 2,8 3,4 6,0 10,2 8 5 12 7 ZW 1026,7 8 0 0,2
20.01.2017 08:00:00 3,9 2,1 3,3 6,0 10,2 7 4 10 6 NNW 1026,3 10 0 0,0
20.01.2017 07:00:00 3,6 2,1 2,7 6,1 10,3 5 3 11 6 W 1026,4 11 0 0,0
20.01.2017 06:00:00 3,5 1,0 2,7 6,0 10,3 7 4 11 6 WZW 1026,4 8 0 0,0
20.01.2017 05:00:00 3,5 0,0 2,8 6,0 10,3 5 3 9 5 W 1026,7 14 0 0,0
20.01.2017 04:00:00 3,4 0,6 2,5 6,0 10,3 5 3 11 6 W 1027,3 15 0 0,0
20.01.2017 03:00:00 2,9 -0,4 2,3 6,0 10,3 6 3 9 5 ONO 1027,5 20 0 0,0
20.01.2017 02:00:00 4,3 0,1 3,0 6,0 10,3 4 2 10 5 N 1026,9 20 0 0,0
20.01.2017 01:00:00 3,9 -0,3 2,5 5,9 10,3 8 4 9 5 WNW 1026,9 20 0 0,0
20.01.2017 00:00:00 3,4 -1,2 2,4 5,9 10,4 4 2 5 3 - 1027,5 10 0 0,0
19.01.2017 23:00:00 3,3 -2,9 2,5 6,0 10,4 5 3 6 4 W 1027,3 10 0 0,0
19.01.2017 22:00:00 2,7 -3,6 1,4 6,0 10,4 0 0 5 3 N 1027,1 10 0 0,0
19.01.2017 21:00:00 2,4 -3,7 1,2 6,1 10,4 3 1 5 3 W 1026,8 22 0 0,0
19.01.2017 20:00:00 2,3 -4,7 0,2 6,1 10,4 3 2 8 4 NW 1026,7 14 0 0,0
19.01.2017 19:00:00 2,9 -5,0 -2,0 6,2 10,4 3 1 6 3 Z 1026,6 21 0 0,0
19.01.2017 18:00:00 4,7 -6,2 -1,5 6,1 10,4 4 2 5 3 OZO 1026,1 19 7 0,0
19.01.2017 17:00:00 7,0 -6,7 7,3 5,9 10,4 0 0 9 5 N 1026,0 39 60 0,0
19.01.2017 16:00:00 7,3 -6,5 9,6 5,8 10,4 4 2 11 6 ONO 1026,0 37 60 0,0
19.01.2017 15:00:00 7,9 -6,6 9,3 5,4 10,5 5 3 16 9 ONO 1026,0 43 60 0,0
19.01.2017 14:00:00 6,9 -7,2 11,0 5,1 10,5 4 2 11 6 NNO 1026,2 49 60 0,0
19.01.2017 13:00:00 6,1 -7,9 11,3 4,9 10,5 5 3 12 7 NO 1026,6 31 60 0,0
19.01.2017 12:00:00 5,5 -8,1 11,4 4,8 10,5 3 2 9 5 W 1027,2 43 60 0,0
19.01.2017 11:00:00 4,3 -7,5 8,3 4,8 10,5 5 3 10 6 ZW 1027,3 45 60 0,0
19.01.2017 10:00:00 1,6 -7,2 1,0 4,8 10,5 3 2 8 4 ZW 1027,0 43 60 0,0
19.01.2017 09:00:00 -2,4 -7,1 -6,1 4,9 10,6 4 2 9 5 ZW 1026,9 28 18 0,0
19.01.2017 08:00:00 -2,4 -8,5 -4,4 5,0 10,6 5 3 16 8 W 1026,3 34 0 0,0
19.01.2017 07:00:00 -1,9 -7,8 -6,9 5,2 10,6 9 5 16 9 NW 1025,9 31 0 0,0
19.01.2017 06:00:00 -2,6 -7,9 -6,9 5,3 10,6 4 2 21 11 WZW 1025,9 30 0 0,0
19.01.2017 05:00:00 -1,7 -7,6 -4,4 5,4 10,6 11 6 18 10 NW 1025,9 32 0 0,0
19.01.2017 04:00:00 -1,6 -7,7 -3,3 5,5 10,6 10 5 24 13 NW 1026,3 31 0 0,0
19.01.2017 03:00:00 -1,5 -7,6 -4,5 5,6 10,6 7 4 19 10 NW 1026,0 33 0 0,0
19.01.2017 02:00:00 -1,0 -8,0 -2,8 5,7 10,6 10 5 19 11 WNW 1025,5 35 0 0,0
19.01.2017 01:00:00 -0,7 -7,7 -3,1 5,8 10,6 13 7 25 14 NW 1024,8 35 0 0,0
19.01.2017 00:00:00 -0,5 -8,0 -1,6 6,0 10,7 11 6 21 11 NW 1024,9 36 0 0,0
18.01.2017 23:00:00 -0,2 -7,9 -1,1 6,1 10,7 13 7 37 20 NW 1024,7 38 0 0,0
18.01.2017 22:00:00 0,2 -8,0 -0,8 6,2 10,7 18 10 39 21 NW 1024,4 40 0 0,0
18.01.2017 21:00:00 0,3 -7,9 -1,0 6,3 10,7 12 6 26 14 NW 1024,4 42 0 0,0
18.01.2017 20:00:00 0,8 -8,0 0,0 6,4 10,7 18 10 30 16 NW 1024,4 42 0 0,0
18.01.2017 19:00:00 1,3 -8,0 0,4 6,5 10,7 12 7 27 15 NW 1024,1 43 0 0,0
18.01.2017 18:00:00 2,1 -8,1 1,5 6,4 10,8 17 9 35 19 NNW 1023,3 47 22 0,0
18.01.2017 17:00:00 3,4 -8,0 3,7 6,3 10,7 20 11 42 23 NW 1023,0 36 54 0,0
18.01.2017 16:00:00 3,7 -8,0 4,0 6,2 10,8 25 13 36 19 NW 1022,9 49 49 0,0
18.01.2017 15:00:00 4,4 -8,0 4,7 6,0 10,8 19 11 30 16 NW 1023,3 59 29 0,0
18.01.2017 14:00:00 4,5 -8,3 6,1 5,8 10,8 21 11 35 19 NW 1023,2 44 52 0,0
18.01.2017 13:00:00 4,6 -8,5 7,4 5,7 10,8 19 10 34 18 NW 1023,1 46 60 0,0
18.01.2017 12:00:00 3,4 -8,3 6,5 5,6 10,8 18 10 33 18 NW 1023,8 49 60 0,0
18.01.2017 11:00:00 2,6 -8,2 4,1 5,6 10,8 18 10 43 23 NW 1023,9 57 60 0,0
18.01.2017 10:00:00 1,2 -8,6 1,5 5,7 10,8 21 11 40 22 WNW 1023,5 51 60 0,0
18.01.2017 09:00:00 0,0 -8,5 -1,3 5,7 10,9 17 9 35 19 WNW 1023,4 43 19 0,0
18.01.2017 08:00:00 -0,4 -8,4 -1,2 5,8 10,9 17 9 43 23 NW 1022,3 46 0 0,0
18.01.2017 07:00:00 -0,1 -8,5 -0,7 5,9 10,9 27 14 47 25 NW 1021,8 48 0 0,0
18.01.2017 06:00:00 0,2 -8,5 -0,5 6,0 10,9 27 14 64 35 NW 1021,9 51 0 0,0
18.01.2017 05:00:00 0,6 -8,9 0,0 6,1 10,9 29 16 57 31 NW 1021,8 53 0 0,0
18.01.2017 04:00:00 0,8 -9,0 0,2 6,2 10,9 30 16 61 33 NW 1022,2 54 0 0,0
18.01.2017 03:00:00 0,8 -9,0 0,0 6,3 10,9 21 11 40 21 NNW 1022,8 56 0 0,0
18.01.2017 02:00:00 0,8 -8,5 0,2 6,4 11,0 22 12 51 27 NNW 1022,8 54 0 0,0
18.01.2017 01:00:00 1,2 -8,1 0,4 6,5 11,0 23 12 50 27 NNW 1022,8 54 0 0,0
18.01.2017 00:00:00 1,1 -8,4 0,3 6,6 11,0 16 9 47 26 NNW 1023,0 56 0 0,0
17.01.2017 23:00:00 2,0 -8,4 1,2 6,7 10,9 28 15 57 31 NNW 1022,9 55 0 0,0
17.01.2017 22:00:00 2,5 -8,3 1,6 6,8 11,0 35 19 73 40 NW 1021,7 56 0 0,0
17.01.2017 21:00:00 2,5 -8,5 1,7 6,8 11,0 32 17 68 37 NW 1021,4 59 0 0,0
17.01.2017 20:00:00 2,3 -8,4 1,5 7,0 11,0 31 17 67 36 NW 1021,1 60 0 0,0
17.01.2017 19:00:00 2,2 -8,2 1,6 7,1 11,0 39 21 68 37 WNW 1020,8 58 0 0,0
17.01.2017 18:00:00 2,1 -8,3 1,6 7,1 11,0 36 19 74 40 NW 1020,4 56 23 0,0
17.01.2017 17:00:00 2,9 -8,8 3,1 7,1 11,0 41 22 73 39 NW 1020,1 21 60 0,0
17.01.2017 16:00:00 3,2 -8,8 3,7 7,1 11,0 45 24 79 43 NW 1020,1 15 60 0,0
17.01.2017 15:00:00 3,0 -9,6 3,8 7,0 11,0 49 26 82 44 NW 1020,1 14 60 0,0
17.01.2017 14:00:00 3,2 -8,5 4,8 6,9 11,0 43 23 77 42 NW 1020,1 14 60 0,0
17.01.2017 13:00:00 3,0 -8,1 4,7 6,9 11,0 47 25 69 38 NW 1020,5 13 60 0,0
17.01.2017 12:00:00 2,5 -8,0 5,0 6,9 11,0 44 24 66 36 WNW 1020,9 20 60 0,0
17.01.2017 11:00:00 2,2 -8,0 3,6 7,0 11,0 41 22 66 35 NW 1021,0 26 60 0,0
17.01.2017 10:00:00 1,6 -8,0 2,0 7,0 11,0 40 22 68 37 NW 1020,6 33 60 0,0
17.01.2017 09:00:00 1,1 -8,2 0,6 7,2 11,0 35 19 64 35 NW 1019,8 46 25 0,0
17.01.2017 08:00:00 1,3 -8,5 0,8 7,3 11,0 40 21 69 37 NW 1019,0 60 0 0,0
17.01.2017 07:00:00 1,4 -8,2 0,8 7,4 11,0 31 17 62 34 NW 1019,1 60 0 0,0
17.01.2017 06:00:00 1,7 -8,4 0,8 7,6 11,0 27 15 58 31 NW 1018,7 60 0 0,0
17.01.2017 05:00:00 2,0 -8,2 1,1 7,8 11,0 33 18 65 35 NW 1018,8 60 0 0,0
17.01.2017 04:00:00 2,0 -7,6 1,5 7,8 11,0 39 21 69 37 NW 1018,7 60 0 0,0
17.01.2017 03:00:00 2,3 -7,6 1,6 8,1 11,0 43 23 72 39 NW 1018,8 60 0 0,0
17.01.2017 02:00:00 2,4 -6,7 1,8 8,2 11,1 38 20 62 34 NW 1019,1 60 0 0,0
17.01.2017 01:00:00 3,1 -8,6 2,5 8,4 11,0 34 18 57 31 NW 1019,7 60 0 0,0
17.01.2017 00:00:00 3,5 -9,5 2,8 8,5 11,1 32 17 61 33 NNW 1020,2 60 0 0,0
16.01.2017 23:00:00 4,0 -8,1 3,4 8,6 11,0 29 16 48 26 NNW 1020,3 60 0 0,0
16.01.2017 22:00:00 4,6 -8,2 4,1 8,7 11,1 24 13 52 28 N 1020,6 60 0 0,0
16.01.2017 21:00:00 5,4 -7,8 5,0 8,8 11,1 30 16 65 35 N 1020,3 60 0 0,0
16.01.2017 20:00:00 6,7 -4,4 6,6 8,8 11,1 38 21 68 37 N 1019,2 60 0 0,0
16.01.2017 19:00:00 7,7 -1,8 6,6 8,8 11,1 39 21 69 37 N 1018,1 60 0 0,0
16.01.2017 18:00:00 7,9 1,7 6,5 8,8 11,1 32 17 59 32 N 1016,9 60 0 0,0
16.01.2017 17:00:00 9,5 0,6 9,1 8,6 11,1 30 16 67 36 NNW 1016,5 60 5 0,0
16.01.2017 16:00:00 10,8 0,8 10,4 8,5 11,1 31 17 72 39 NNW 1016,1 35 25 0,0
16.01.2017 15:00:00 11,4 0,5 11,1 8,4 11,1 36 20 64 35 NNW 1016,2 44 17 0,0
16.01.2017 14:00:00 10,8 0,8 10,7 8,3 11,1 36 19 66 35 NW 1016,3 60 10 0,0
16.01.2017 13:00:00 10,4 2,2 10,6 8,1 11,1 29 16 57 31 NNW 1016,9 45 0 0,0
16.01.2017 12:00:00 10,3 1,9 10,3 8,1 11,1 30 16 63 34 NNW 1017,7 59 11 0,0
16.01.2017 11:00:00 10,0 2,1 9,6 8,0 11,1 34 18 56 30 NNW 1017,9 10 10 0,0
16.01.2017 10:00:00 9,8 2,6 8,7 8,0 11,1 26 14 54 29 NNW 1017,8 58 0 0,0
16.01.2017 09:00:00 8,8 2,8 8,3 8,0 11,1 17 9 42 23 NNW 1017,9 60 0 0,0
16.01.2017 08:00:00 8,6 3,2 7,2 8,0 11,2 22 12 44 24 NW 1017,7 60 0 0,0
16.01.2017 07:00:00 7,5 2,8 7,0 8,0 11,1 20 11 31 17 W 1017,8 60 0 0,0
16.01.2017 06:00:00 7,4 2,1 6,2 8,0 11,1 21 12 32 17 WNW 1018,2 60 0 0,0
16.01.2017 05:00:00 7,3 1,8 6,5 8,0 11,2 17 9 36 20 NW 1018,6 60 0 0,0
16.01.2017 04:00:00 7,1 1,6 6,7 8,1 11,1 19 11 45 24 NW 1019,1 60 0 0,0
16.01.2017 03:00:00 7,0 1,3 6,3 8,1 11,2 30 16 49 26 NW 1019,6 60 0 0,0
16.01.2017 02:00:00 6,7 1,0 6,4 8,0 11,2 27 15 45 25 NW 1019,8 60 0 0,0
16.01.2017 01:00:00 6,8 1,1 6,1 8,1 11,2 25 14 43 23 NW 1020,8 60 0 0,0
16.01.2017 00:00:00 6,4 0,9 6,0 8,1 11,2 22 12 40 22 NW 1021,3 60 0 0,0
15.01.2017 23:00:00 6,4 0,7 5,9 8,1 11,2 22 12 40 21 NW 1022,4 60 0 0,0
15.01.2017 22:00:00 6,5 0,4 6,0 8,2 11,2 24 13 48 26 NW 1022,8 60 0 0,0
15.01.2017 21:00:00 6,5 0,2 5,9 8,2 11,2 24 13 44 24 NW 1023,2 60 0 0,0
15.01.2017 20:00:00 6,4 0,3 5,9 8,2 11,3 30 16 64 34 NW 1023,5 60 0 0,0
15.01.2017 19:00:00 6,7 -0,1 6,2 8,2 11,2 34 18 60 32 NW 1023,0 60 0 0,0
15.01.2017 18:00:00 6,7 -0,5 6,4 8,2 11,2 25 14 60 33 NW 1023,0 60 0 0,0
15.01.2017 17:00:00 7,1 -1,8 7,1 8,2 11,3 33 18 64 34 NW 1022,7 60 0 0,0
15.01.2017 16:00:00 7,2 -4,0 7,3 8,1 11,3 37 20 67 36 NW 1022,8 54 1 0,0
15.01.2017 15:00:00 7,3 -4,5 7,7 8,0 11,3 32 18 60 33 NW 1022,6 45 0 0,0
15.01.2017 14:00:00 7,7 -5,1 8,2 7,9 11,3 35 19 70 38 NW 1022,2 35 20 0,0
15.01.2017 13:00:00 7,7 -4,7 7,1 7,8 11,3 38 21 73 39 NW 1022,3 26 46 0,0
15.01.2017 12:00:00 6,6 -3,9 7,1 7,8 11,3 36 20 77 42 NNW 1022,8 29 14 0,0
15.01.2017 11:00:00 7,4 -3,5 7,4 7,8 11,3 43 23 72 39 NNW 1023,1 34 41 0,0
15.01.2017 10:00:00 7,0 -3,6 7,0 7,8 11,3 44 24 81 44 NNW 1022,6 60 60 0,0
15.01.2017 09:00:00 6,4 -2,5 6,0 7,8 11,3 35 19 76 41 NW 1022,2 35 20 0,0
15.01.2017 08:00:00 6,6 -1,6 5,0 7,8 11,3 36 19 69 37 NNW 1021,5 60 0 0,0
15.01.2017 07:00:00 5,9 1,4 4,6 7,8 11,3 33 18 70 38 NNW 1020,5 17 0 0,0
15.01.2017 06:00:00 6,9 0,6 5,8 7,9 11,3 38 20 70 38 NNW 1019,7 60 0 0,0
15.01.2017 05:00:00 7,3 0,5 6,3 7,9 11,4 32 17 65 35 NW 1019,8 60 0 0,0
15.01.2017 04:00:00 7,0 -0,2 6,1 7,9 11,4 29 16 59 32 WNW 1020,1 54 0 0,0
15.01.2017 03:00:00 6,8 -1,1 5,8 8,0 11,4 32 17 52 28 WNW 1020,5 60 0 0,0
15.01.2017 02:00:00 6,6 -1,3 5,7 8,1 11,4 23 13 54 29 WNW 1021,3 60 0 0,0
15.01.2017 01:00:00 6,5 -1,9 5,7 8,1 11,4 32 17 64 35 NW 1021,7 60 0 0,0

tt = temperatuur
td = dauwpunt
tt 5cm = temperatuur 5cm
tt -20cm = temperatuur -20cm
tt -100cm = temperatuur -100cm
ff = windsnelheid
fx = windstoten
dd = windrichting
ppp = luchtdruk
vv = zicht
sd = Zonneschijnduur
rr = neerslag

Weerstations in de omgeving